Regional Weather Roundup
Issued by NWS Goodland, KS

Home | Current Version | Previous Version | Graphics & Text | Print | Product List | Glossary On
Versions: 1 2 3 4 5 6 7 8 9 10 11 12 13 14 15 16 17 18 19 20 21 22 23 24 25 26 27 28 29 30 31 32 33 34 35 36 37 38 39 40 41 42 43 44 45 46 47 48 49 50
695
ASUS43 KGLD 141859
RWRGLD

GOODLAND FORECAST AREA HOURLY WEATHER ROUNDUP
NATIONAL WEATHER SERVICE GOODLAND KS
1200 PM MST SUN FEB 14 2016

...OFFICIAL OBSERVATIONS...

CITY           SKY/WX    TMP DP  RH WIND       PRES   REMARKS
GOODLAND KS    CLOUDY    47  23  38 W10       29.93F
HILL CITY KS   CLOUDY    50  28  42 W9        29.92F
IMPERIAL NEB   CLOUDY    44  27  51 SW13      29.89F
MCCOOK NEB     MOSUNNY   44  28  53 W14       29.90F
AKRON CO       CLOUDY    43  23  45 S9        29.88F
BURLINGTON CO  CLOUDY    44  24  45 SW15      29.93F
LIMON CO       CLOUDY    42  27  55 S8        29.91F
$$

...UNOFFICIAL OBSERVATIONS...

CITY           SKY/WX    TMP DP  RH WIND       PRES   REMARKS
COLBY KS       CLOUDY    45  34  65 W12       29.93F
GOVE KS          N/A     50  32  50 MISG        N/A
LENORA KS        N/A     46  32  58 MISG        N/A
NORTON KS      SUNNY     45  28  53 SW15      29.90
SHARON SPRINGS   N/A     49  29  45 SW5G12      N/A
TRENTON NEB      N/A     46  32  58 MISG        N/A
KIT CARSON CO    N/A     44  27  50 MISG        N/A
YUMA CO          N/A     46  24  42 SW10        N/A
$$




USA.gov is the U.S. government's official web portal to all federal, state and local government web resources and services.